EZY49TA LGRP-EGKK

Flight info

Callsign EZY49TA
Flight time N/A
Altitude 36000
Route VANES UM601 ADESO UN133 RIGRO DCT DISOR DCT LONTA UL608 DOLEV DCT PODOB DCT LIKVI DCT MONID DCT RUGOG DCT RIFEN DCT SAFFA DCT ELMUR DCT RIPUS L613 HOC DCT LUL DCT RLP DCT ROTSI DCT KOTUN DCT NINAL DCT KESAX DCT KUNAV
Aircraft A320/M-SDE2E3FGHIJ1RWXYZ/LB1

Departure

Time N/A
Airport Rhodes International Airport "Diagoras" (LGRP)

Arrival

Time 2026-05-05 16:12
Airport London Gatwick Airport (EGKK)
Time Latitude Longitude Altitude Speed Heading
2026-05-05 14:28 45.91553 13.37188 36029 ft 400 kts 290°
2026-05-05 14:28 45.92633 13.33508 36027 ft 400 kts 290°
2026-05-05 14:29 45.94795 13.26145 36024 ft 400 kts 290°
2026-05-05 14:29 45.96947 13.18775 36021 ft 400 kts 290°
2026-05-05 14:30 45.99091 13.11396 36032 ft 400 kts 290°
2026-05-05 14:30 46.01237 13.04013 36028 ft 400 kts 290°
2026-05-05 14:31 46.03386 12.96619 36017 ft 400 kts 290°
2026-05-05 14:31 46.05525 12.89201 36024 ft 401 kts 290°
2026-05-05 14:32 46.07644 12.81828 36024 ft 401 kts 290°
2026-05-05 14:32 46.09777 12.74407 36040 ft 401 kts 289°
2026-05-05 14:33 46.11903 12.66977 36032 ft 401 kts 289°
2026-05-05 14:33 46.14031 12.59537 36028 ft 401 kts 289°
2026-05-05 14:34 46.16150 12.52084 36025 ft 402 kts 289°
2026-05-05 14:34 46.18262 12.44634 36020 ft 401 kts 289°
2026-05-05 14:35 46.20380 12.37153 36032 ft 403 kts 289°
2026-05-05 14:35 46.22495 12.29668 36024 ft 403 kts 288°
2026-05-05 14:36 46.24596 12.22185 36019 ft 402 kts 288°
2026-05-05 14:36 46.26691 12.14716 36010 ft 402 kts 288°
2026-05-05 14:37 46.28790 12.07210 36013 ft 403 kts 288°
2026-05-05 14:37 46.30881 11.99698 36012 ft 403 kts 288°
2026-05-05 14:38 46.32967 11.92162 36005 ft 403 kts 288°
2026-05-05 14:38 46.35049 11.84623 35998 ft 404 kts 288°
2026-05-05 14:39 46.37132 11.77077 35995 ft 404 kts 288°
2026-05-05 14:39 46.39212 11.69512 36003 ft 404 kts 288°
2026-05-05 14:40 46.41289 11.61944 35986 ft 404 kts 288°
2026-05-05 14:40 46.43363 11.54373 35979 ft 404 kts 288°
2026-05-05 14:41 46.45425 11.46801 35976 ft 404 kts 287°
2026-05-05 14:41 46.47479 11.39217 35975 ft 404 kts 287°
2026-05-05 14:42 46.49528 11.31625 35986 ft 404 kts 287°
2026-05-05 14:42 46.51566 11.24079 35979 ft 404 kts 287°
2026-05-05 14:43 46.53618 11.16476 35983 ft 404 kts 287°
2026-05-05 14:43 46.55661 11.08865 35982 ft 404 kts 287°
2026-05-05 14:44 46.57699 11.01243 35975 ft 405 kts 287°
2026-05-05 14:44 46.59729 10.93615 35994 ft 405 kts 286°
2026-05-05 14:45 46.61761 10.85964 35988 ft 406 kts 286°
2026-05-05 14:45 46.63784 10.78300 35982 ft 406 kts 286°
2026-05-05 14:46 46.65805 10.70633 35970 ft 406 kts 286°
2026-05-05 14:46 46.67824 10.62960 35967 ft 405 kts 286°
2026-05-05 14:47 46.69836 10.55295 35967 ft 406 kts 285°
2026-05-05 14:47 46.71839 10.47614 35947 ft 405 kts 285°
2026-05-05 14:48 46.73830 10.39933 35929 ft 405 kts 285°
2026-05-05 14:48 46.75958 10.32300 35916 ft 408 kts 288°
2026-05-05 14:49 46.78204 10.24691 35912 ft 408 kts 288°
2026-05-05 14:49 46.80427 10.17077 35940 ft 408 kts 287°
2026-05-05 14:50 46.82620 10.09451 35926 ft 407 kts 287°
2026-05-05 14:50 46.84799 10.01807 35916 ft 407 kts 287°
2026-05-05 14:51 46.86967 9.94163 35896 ft 408 kts 287°
2026-05-05 14:51 46.89128 9.86547 35881 ft 408 kts 287°
2026-05-05 14:52 46.91292 9.78884 35889 ft 408 kts 286°
2026-05-05 14:52 46.93450 9.71204 35877 ft 408 kts 286°
2026-05-05 14:53 46.95592 9.63535 35866 ft 407 kts 286°
2026-05-05 14:53 46.97740 9.55859 35866 ft 408 kts 286°
2026-05-05 14:54 46.99889 9.48172 35849 ft 408 kts 286°
2026-05-05 14:54 47.02030 9.40470 35870 ft 408 kts 286°
2026-05-05 14:55 47.04150 9.32785 35864 ft 410 kts 286°
2026-05-05 14:55 47.06305 9.24969 35863 ft 411 kts 286°
2026-05-05 14:56 47.08454 9.17183 35872 ft 412 kts 286°
2026-05-05 14:56 47.10599 9.09393 35874 ft 411 kts 286°
2026-05-05 14:57 47.12731 9.01582 35879 ft 412 kts 286°
2026-05-05 14:57 47.14846 8.93805 35867 ft 413 kts 286°
2026-05-05 14:58 47.16946 8.85966 35865 ft 413 kts 285°
2026-05-05 14:58 47.18958 8.78056 35857 ft 413 kts 285°
2026-05-05 14:59 47.20956 8.70100 35861 ft 414 kts 285°
2026-05-05 14:59 47.22960 8.62148 35877 ft 415 kts 285°
2026-05-05 15:00 47.24630 8.55519 35866 ft 416 kts 285°
2026-05-05 15:00 47.26984 8.46189 35864 ft 416 kts 285°
2026-05-05 15:01 47.28989 8.38255 35865 ft 417 kts 285°
2026-05-05 15:01 47.30999 8.30253 35869 ft 417 kts 285°
2026-05-05 15:02 47.33001 8.22217 35843 ft 418 kts 285°
2026-05-05 15:02 47.34993 8.14159 35840 ft 419 kts 285°
2026-05-05 15:03 47.36995 8.06072 35843 ft 420 kts 285°
2026-05-05 15:03 47.38988 7.97968 35841 ft 421 kts 285°
2026-05-05 15:04 47.40981 7.89840 35851 ft 421 kts 285°
2026-05-05 15:04 47.42969 7.81703 35853 ft 421 kts 285°
2026-05-05 15:05 47.45945 7.69482 35859 ft 421 kts 285°
2026-05-05 15:06 47.47544 7.61213 35861 ft 418 kts 279°
2026-05-05 15:06 47.48943 7.52878 35864 ft 418 kts 279°
2026-05-05 15:07 47.50340 7.44590 35870 ft 419 kts 279°
2026-05-05 15:07 47.51735 7.36212 35857 ft 420 kts 279°
2026-05-05 15:08 47.53118 7.27810 35852 ft 420 kts 279°
2026-05-05 15:08 47.54499 7.19412 35856 ft 420 kts 279°
2026-05-05 15:09 47.55875 7.11000 35878 ft 421 kts 279°
2026-05-05 15:09 47.57016 7.03990 35864 ft 422 kts 279°
2026-05-05 15:10 47.58392 6.95507 35860 ft 422 kts 279°
2026-05-05 15:10 47.59761 6.87023 35862 ft 423 kts 279°
2026-05-05 15:11 47.61111 6.78564 35863 ft 425 kts 279°
2026-05-05 15:11 47.62476 6.70035 35878 ft 425 kts 279°
2026-05-05 15:12 47.63838 6.61484 35861 ft 426 kts 279°
2026-05-05 15:12 47.65192 6.52899 35860 ft 427 kts 279°
2026-05-05 15:13 47.66527 6.44352 35870 ft 428 kts 279°
2026-05-05 15:13 47.67866 6.35756 35867 ft 428 kts 279°
2026-05-05 15:14 47.69247 6.27154 35887 ft 429 kts 282°
2026-05-05 15:14 47.70989 6.18668 35873 ft 430 kts 285°
2026-05-05 15:15 47.72899 6.10227 35862 ft 431 kts 285°
2026-05-05 15:15 47.74755 6.01803 35848 ft 430 kts 284°
2026-05-05 15:16 47.76537 5.93318 35844 ft 430 kts 284°
2026-05-05 15:16 47.78293 5.84866 35844 ft 430 kts 284°
2026-05-05 15:17 47.80063 5.76355 35841 ft 430 kts 284°
2026-05-05 15:17 47.81816 5.67873 35838 ft 430 kts 284°
2026-05-05 15:18 47.83583 5.59353 35833 ft 430 kts 284°
2026-05-05 15:18 47.85345 5.50820 35829 ft 430 kts 284°
2026-05-05 15:19 47.87087 5.42328 35845 ft 431 kts 283°
2026-05-05 15:19 47.88827 5.33783 35834 ft 431 kts 283°
2026-05-05 15:20 47.90965 5.25408 35819 ft 436 kts 297°
2026-05-05 15:20 47.94720 5.18225 35814 ft 442 kts 310°
2026-05-05 15:21 47.98828 5.11478 35814 ft 442 kts 309°
2026-05-05 15:21 48.02956 5.04642 35821 ft 443 kts 309°
2026-05-05 15:22 48.07094 4.97780 35820 ft 443 kts 309°
2026-05-05 15:22 48.11209 4.90949 35813 ft 443 kts 309°
2026-05-05 15:23 48.15338 4.84082 35806 ft 444 kts 309°
2026-05-05 15:23 48.19463 4.77185 35804 ft 444 kts 309°
2026-05-05 15:24 48.23586 4.70279 35818 ft 444 kts 310°
2026-05-05 15:24 48.27682 4.63415 35818 ft 444 kts 310°
2026-05-05 15:25 48.31800 4.56502 35812 ft 443 kts 310°
2026-05-05 15:25 48.35905 4.49571 35805 ft 443 kts 310°
2026-05-05 15:26 48.39983 4.42679 35797 ft 443 kts 310°
2026-05-05 15:26 48.44089 4.35723 35797 ft 443 kts 310°
2026-05-05 15:27 48.48182 4.28768 35808 ft 443 kts 310°
2026-05-05 15:27 48.52243 4.21840 35804 ft 443 kts 310°
2026-05-05 15:28 48.56323 4.14873 35806 ft 443 kts 310°
2026-05-05 15:28 48.60406 4.07866 35800 ft 443 kts 310°
2026-05-05 15:29 48.64487 4.00848 35799 ft 443 kts 310°
2026-05-05 15:29 48.68542 3.93869 35800 ft 444 kts 310°
2026-05-05 15:30 48.72627 3.86829 35799 ft 444 kts 311°
2026-05-05 15:30 48.76927 3.80112 35795 ft 444 kts 315°
2026-05-05 15:31 48.81412 3.73666 35785 ft 444 kts 316°
2026-05-05 15:31 48.85849 3.67234 35789 ft 444 kts 315°
2026-05-05 15:32 48.90255 3.60662 35791 ft 444 kts 314°
2026-05-05 15:32 48.94656 3.54012 35797 ft 445 kts 314°
2026-05-05 15:33 48.99038 3.47384 35805 ft 444 kts 314°
2026-05-05 15:33 49.03406 3.40807 35804 ft 443 kts 314°
2026-05-05 15:34 49.07790 3.34198 35804 ft 443 kts 314°
2026-05-05 15:34 49.12165 3.27564 35803 ft 443 kts 314°
2026-05-05 15:35 49.16547 3.20899 35809 ft 443 kts 314°
2026-05-05 15:35 49.20918 3.14239 35815 ft 444 kts 314°
2026-05-05 15:36 49.25284 3.07577 35822 ft 443 kts 314°
2026-05-05 15:36 49.29632 3.00911 35813 ft 442 kts 314°
2026-05-05 15:37 49.33977 2.94237 35811 ft 442 kts 314°
2026-05-05 15:37 49.38317 2.87541 35814 ft 442 kts 314°
2026-05-05 15:38 49.42655 2.80836 35818 ft 442 kts 314°
2026-05-05 15:38 49.46993 2.74115 35823 ft 443 kts 314°
2026-05-05 15:39 49.51339 2.67370 35839 ft 443 kts 314°
2026-05-05 15:39 49.55651 2.60668 35833 ft 442 kts 314°
2026-05-05 15:40 49.59982 2.53910 35833 ft 442 kts 313°
2026-05-05 15:40 49.64137 2.46889 35835 ft 442 kts 309°
2026-05-05 15:41 49.68052 2.39584 35837 ft 442 kts 308°
2026-05-05 15:41 49.71933 2.32294 35839 ft 442 kts 308°
2026-05-05 15:42 49.75897 2.25005 35849 ft 442 kts 309°
2026-05-05 15:42 49.79894 2.17741 35853 ft 442 kts 309°
2026-05-05 15:43 49.83846 2.10518 35851 ft 442 kts 309°
2026-05-05 15:43 49.85833 2.06864 35741 ft 446 kts 308°
2026-05-05 15:43 49.87829 2.03183 35487 ft 446 kts 308°
2026-05-05 15:43 49.89813 1.99513 35073 ft 442 kts 308°
2026-05-05 15:44 49.91787 1.95858 34530 ft 440 kts 309°
2026-05-05 15:44 49.93724 1.92267 33992 ft 438 kts 309°
2026-05-05 15:44 49.95677 1.88641 33396 ft 436 kts 309°
2026-05-05 15:44 49.97621 1.85031 32881 ft 432 kts 309°
2026-05-05 15:45 49.99537 1.81467 32364 ft 428 kts 309°
2026-05-05 15:45 50.01448 1.77917 31829 ft 425 kts 309°
2026-05-05 15:45 50.03335 1.74412 31330 ft 422 kts 309°
2026-05-05 15:45 50.05187 1.70959 30818 ft 419 kts 309°
2026-05-05 15:46 50.07090 1.67527 30351 ft 416 kts 314°
2026-05-05 15:46 50.09227 1.64513 29881 ft 413 kts 319°
2026-05-05 15:46 50.11388 1.61590 29391 ft 408 kts 319°
2026-05-05 15:46 50.13516 1.58700 28948 ft 403 kts 319°
2026-05-05 15:47 50.15616 1.55844 28516 ft 399 kts 319°
2026-05-05 15:47 50.16998 1.53964 28237 ft 396 kts 319°
2026-05-05 15:47 50.19733 1.50237 27673 ft 390 kts 317°
2026-05-05 15:47 50.21772 1.47459 27236 ft 387 kts 317°
2026-05-05 15:48 50.23789 1.44709 26806 ft 383 kts 318°
2026-05-05 15:48 50.25771 1.42006 26353 ft 381 kts 317°
2026-05-05 15:48 50.27766 1.39278 25915 ft 378 kts 317°
2026-05-05 15:48 50.29742 1.36571 25462 ft 376 kts 318°
2026-05-05 15:49 50.31701 1.33880 24996 ft 374 kts 318°
2026-05-05 15:49 50.33655 1.31195 24521 ft 372 kts 318°
2026-05-05 15:49 50.35600 1.28522 24051 ft 371 kts 318°
2026-05-05 15:49 50.37540 1.25857 23564 ft 370 kts 318°
2026-05-05 15:50 50.39453 1.23225 23052 ft 369 kts 318°
2026-05-05 15:50 50.41379 1.20569 22548 ft 367 kts 318°
2026-05-05 15:50 50.43286 1.17938 22099 ft 363 kts 318°
2026-05-05 15:50 50.45181 1.15322 21636 ft 361 kts 318°
2026-05-05 15:51 50.47061 1.12723 21193 ft 358 kts 318°
2026-05-05 15:51 50.48922 1.10143 20745 ft 356 kts 318°
2026-05-05 15:51 50.50769 1.07575 20301 ft 354 kts 319°
2026-05-05 15:51 50.52509 1.04866 19858 ft 352 kts 313°
2026-05-05 15:52 50.54177 1.02056 19417 ft 350 kts 313°
2026-05-05 15:52 50.55819 0.99286 18976 ft 349 kts 314°
2026-05-05 15:52 50.57478 0.96487 18538 ft 348 kts 314°
2026-05-05 15:52 50.59130 0.93697 18085 ft 347 kts 314°
2026-05-05 15:53 50.60777 0.90917 17629 ft 345 kts 315°
2026-05-05 15:53 50.62391 0.88193 17208 ft 342 kts 314°
2026-05-05 15:53 50.64011 0.85454 16785 ft 340 kts 314°
2026-05-05 15:53 50.65614 0.82741 16374 ft 337 kts 314°
2026-05-05 15:54 50.67206 0.80041 15967 ft 335 kts 314°
2026-05-05 15:54 50.68746 0.77292 15481 ft 336 kts 311°
2026-05-05 15:54 50.70233 0.74439 14976 ft 337 kts 309°
2026-05-05 15:54 50.71689 0.71543 14558 ft 336 kts 309°
2026-05-05 15:55 50.72649 0.69614 14199 ft 337 kts 309°
2026-05-05 15:55 50.74092 0.66713 13874 ft 333 kts 309°
2026-05-05 15:55 50.75518 0.63856 13430 ft 331 kts 310°
2026-05-05 15:55 50.76953 0.61006 12973 ft 329 kts 310°
2026-05-05 15:56 50.78380 0.58188 12555 ft 326 kts 311°
2026-05-05 15:56 50.79785 0.55419 11865 ft 320 kts 310°
2026-05-05 15:56 50.81170 0.52692 11145 ft 315 kts 310°
2026-05-05 15:56 50.82485 0.49988 10598 ft 305 kts 302°
2026-05-05 15:57 50.83275 0.46937 10073 ft 296 kts 288°
2026-05-05 15:57 50.83841 0.43849 9520 ft 288 kts 287°
2026-05-05 15:57 50.84359 0.40862 8922 ft 281 kts 287°
2026-05-05 15:57 50.84859 0.37890 8260 ft 278 kts 286°
2026-05-05 15:58 50.85357 0.34943 8002 ft 277 kts 286°
2026-05-05 15:58 50.85852 0.31983 7955 ft 278 kts 286°
2026-05-05 15:58 50.86346 0.29051 7603 ft 276 kts 286°
2026-05-05 15:58 50.86840 0.26123 7242 ft 274 kts 286°
2026-05-05 15:59 50.87325 0.23195 6993 ft 274 kts 287°
2026-05-05 15:59 50.87786 0.20264 6744 ft 273 kts 287°
2026-05-05 15:59 50.88229 0.17385 6502 ft 271 kts 287°
2026-05-05 15:59 50.88686 0.14496 6243 ft 271 kts 287°
2026-05-05 16:00 50.89138 0.11608 6046 ft 270 kts 286°
2026-05-05 16:00 50.89586 0.08718 6002 ft 270 kts 287°
2026-05-05 16:00 50.90009 0.05817 6001 ft 270 kts 286°
2026-05-05 16:00 50.90431 0.02897 6010 ft 271 kts 286°
2026-05-05 16:01 50.90854 -0.00002 6002 ft 271 kts 285°
2026-05-05 16:01 50.91297 -0.02898 5863 ft 270 kts 286°
2026-05-05 16:01 50.91752 -0.05745 5756 ft 269 kts 287°
2026-05-05 16:01 50.92218 -0.08617 5677 ft 269 kts 287°
2026-05-05 16:02 50.92676 -0.11497 5599 ft 269 kts 286°
2026-05-05 16:02 50.93129 -0.14375 5522 ft 269 kts 286°
2026-05-05 16:02 50.93593 -0.17256 5438 ft 269 kts 286°
2026-05-05 16:02 50.94057 -0.20127 5368 ft 269 kts 287°
2026-05-05 16:03 50.94511 -0.23002 5264 ft 269 kts 286°
2026-05-05 16:03 50.94963 -0.25875 5071 ft 269 kts 286°
2026-05-05 16:03 50.95412 -0.28681 4870 ft 259 kts 286°
2026-05-05 16:03 50.95842 -0.31397 4668 ft 249 kts 286°
2026-05-05 16:04 50.96245 -0.34019 4453 ft 240 kts 286°
2026-05-05 16:04 50.96634 -0.36552 4247 ft 232 kts 286°
2026-05-05 16:04 50.97012 -0.39007 4040 ft 225 kts 286°
2026-05-05 16:04 50.97379 -0.41389 3834 ft 219 kts 286°
2026-05-05 16:05 50.97864 -0.43641 3624 ft 212 kts 307°
2026-05-05 16:05 50.98929 -0.45155 3461 ft 206 kts 332°
2026-05-05 16:05 51.00195 -0.46250 3285 ft 207 kts 335°
2026-05-05 16:05 51.01483 -0.47284 3117 ft 206 kts 336°
2026-05-05 16:06 51.02756 -0.48299 3012 ft 205 kts 336°
2026-05-05 16:06 51.04015 -0.49301 3001 ft 205 kts 336°
2026-05-05 16:06 51.05300 -0.50316 3006 ft 206 kts 336°
2026-05-05 16:06 51.06620 -0.51133 3000 ft 201 kts 356°
2026-05-05 16:07 51.07982 -0.50903 3012 ft 191 kts 18°
2026-05-05 16:07 51.09172 -0.50052 3008 ft 184 kts 34°
2026-05-05 16:07 51.10128 -0.48735 3003 ft 182 kts 50°
2026-05-05 16:07 51.10809 -0.47053 3009 ft 181 kts 65°
2026-05-05 16:08 51.11172 -0.45135 3004 ft 182 kts 76°
2026-05-05 16:08 51.11450 -0.43164 2987 ft 183 kts 76°
2026-05-05 16:08 51.11723 -0.41220 2815 ft 182 kts 75°
2026-05-05 16:08 51.11999 -0.39250 2589 ft 181 kts 75°
2026-05-05 16:09 51.12273 -0.37298 2388 ft 178 kts 75°
2026-05-05 16:09 51.12540 -0.35387 2119 ft 175 kts 76°
2026-05-05 16:09 51.12794 -0.33561 1880 ft 162 kts 75°
2026-05-05 16:09 51.13030 -0.31873 1668 ft 149 kts 75°
2026-05-05 16:10 51.13245 -0.30325 1468 ft 139 kts 74°
2026-05-05 16:10 51.13452 -0.28846 1294 ft 135 kts 75°
2026-05-05 16:10 51.13652 -0.27410 1108 ft 134 kts 75°
2026-05-05 16:10 51.13857 -0.25963 961 ft 133 kts 76°
2026-05-05 16:11 51.14065 -0.24523 762 ft 133 kts 77°
2026-05-05 16:11 51.14651 -0.20235 218 ft 126 kts 78°
2026-05-05 16:12 51.14813 -0.19047 212 ft 87 kts 78°
2026-05-05 16:12 51.14953 -0.18057 211 ft 26 kts 68°
2026-05-05 16:13 51.15099 -0.17759 206 ft 0 kts 360°
2026-05-05 16:13 51.15106 -0.17759 206 ft 4 kts 360°
2026-05-05 16:14 51.15177 -0.17773 216 ft 6 kts 352°
2026-05-05 16:14 51.15256 -0.17763 212 ft 7 kts 47°
2026-05-05 16:15 51.15295 -0.17501 207 ft 12 kts 81°
2026-05-05 16:15 51.15383 -0.17385 209 ft 13 kts 348°
2026-05-05 16:16 51.15535 -0.17438 209 ft 6 kts 347°
2026-05-05 16:16 51.15605 -0.17463 209 ft 12 kts 347°
2026-05-05 16:17 51.15742 -0.17513 205 ft 7 kts 339°
2026-05-05 16:17 51.15753 -0.17574 205 ft 6 kts 257°
2026-05-05 16:18 51.15735 -0.17700 205 ft 9 kts 258°
2026-05-05 16:18 51.15724 -0.17786 205 ft 7 kts 258°
2026-05-05 16:18 51.15691 -0.17810 205 ft 3 kts 174°
2026-05-05 16:19 51.15667 -0.17800 210 ft 2 kts 162°
2026-05-05 16:19 51.15655 -0.17794 216 ft 0 kts 165°